Theta_e
341 336 335 337 335 337 336 336 337 337 337 340 336 334 333 335 335 336 336 334 333 332 329 330 329 328 328 328 328 331 333 332 328
337 335 336 337 335 334 335 334 334 335 335 336 333 334 334 335 335 334 334 334 332 331 330 329 331 330 333 332 331 331 328 328 325
335 335 336 336 335 334 334 332 328 329 330 330 330 331 332 330 330 330 329 330 330 328 327 328 328 327 329 327 327 326 325 325 325
334 334 336 336 334 333 333 331 324 324 322 319 327 327 325 325 325 326 328 328 328 328 326 329 331 330 327 326 324 324 325 324 327
335 335 335 332 331 333 332 328 322 329 329 322 316 316 319 328 331 332 330 328 328 328 328 330 328 326 325 325 325 326 329 328 325
336 336 331 324 330 330 329 326 328 330 331 329 329 327 330 332 333 332 329 330 332 331 328 329 328 327 322 322 326 328 325 323 323
336 333 331 326 321 328 326 327 330 329 332 331 330 332 333 333 334 331 330 331 330 329 326 328 328 326 322 322 326 324 324 321 320
334 327 325 329 325 327 328 330 331 330 330 331 331 331 332 331 330 329 329 331 331 328 327 327 328 324 320 324 324 323 320 319 319
334 333 331 330 324 328 331 329 329 329 330 329 329 329 329 327 326 325 322 326 330 329 328 329 327 325 321 322 323 319 319 318 318
334 334 333 331 329 326 330 329 328 329 329 327 327 326 327 326 325 326 320 320 326 329 328 328 326 324 320 322 320 318 319 317 318
333 333 333 330 328 326 327 328 327 328 329 328 327 326 326 324 322 321 324 321 322 327 325 326 326 325 322 323 318 319 317 317 317
333 332 332 330 326 326 326 328 328 329 329 327 327 326 324 322 320 319 321 324 323 322 324 325 326 323 324 324 322 319 317 317 317
330 332 332 331 328 326 327 327 327 328 327 327 326 325 322 320 319 319 320 321 324 323 322 323 324 325 324 324 322 320 316 316 317
328 329 330 330 329 327 325 325 326 327 327 327 325 325 322 321 320 318 318 320 320 320 322 321 322 323 323 324 323 321 316 316 316
328 327 328 328 329 327 326 327 327 327 327 325 325 324 322 321 319 320 319 318 318 318 321 321 321 320 321 322 324 322 319 316 316
327 326 327 327 327 326 324 324 324 323 325 322 321 321 322 321 321 320 319 319 318 318 318 320 321 320 320 321 321 323 321 318 317
325 325 326 326 326 325 324 323 322 321 322 323 323 324 321 320 320 320 320 319 318 317 317 318 319 320 319 321 320 320 321 321 319
320 321 322 323 323 323 322 323 322 321 318 319 320 322 323 321 320 320 320 320 320 319 319 318 317 316 319 318 318 319 319 320 321
312 315 315 317 321 321 322 322 322 322 320 316 317 315 315 321 322 319 319 319 320 320 320 319 317 317 317 317 318 317 319 318 319
306 310 310 310 309 313 315 316 318 319 319 317 315 315 313 312 313 319 318 318 319 319 320 319 318 317 316 316 315 314 315 316 317
Wind_Speed
13 14 16 16 15 15 15 17 17 17 16 16 17 19 19 16 13 14 14 14 15 14 14 15 15 16 16 16 17 17 17 21 19
15 16 18 21 19 18 18 17 16 16 15 15 17 19 19 13 12 13 11 11 11 13 15 14 16 16 17 17 18 17 17 17 17
16 17 21 22 21 17 17 16 16 14 14 14 16 17 15 11 10 9 9 12 13 12 13 14 14 16 14 14 13 14 14 14 15
17 19 22 21 20 17 16 16 15 14 13 14 15 15 14 10 9 10 11 15 13 13 12 14 17 19 16 13 13 13 14 14 13
16 20 21 18 18 18 17 15 16 14 14 14 14 14 14 11 11 12 12 15 14 15 14 16 16 14 13 13 13 13 13 16 15
21 24 17 15 15 17 17 16 16 16 15 14 14 14 11 11 11 13 17 16 16 17 15 15 15 17 15 12 9 15 15 14 12
22 22 19 16 16 17 17 17 15 14 12 12 14 11 10 10 10 12 16 15 15 15 14 15 17 17 15 11 10 11 11 9 9
21 23 24 20 18 18 17 14 15 14 14 13 14 11 9 8 8 6 7 15 15 15 14 15 17 15 13 10 11 9 8 9 8
17 19 23 19 22 21 18 16 16 16 16 15 15 12 9 8 7 6 5 5 12 15 14 18 17 15 12 10 8 7 9 8 9
19 20 21 21 18 17 16 16 18 18 17 16 15 13 10 10 8 6 1 3 8 12 13 17 16 13 10 11 10 10 8 8 7
20 20 22 22 23 21 19 19 19 19 18 17 16 15 14 13 11 9 5 5 7 12 13 16 17 13 13 14 13 11 9 9 8
20 21 21 25 25 21 19 19 18 17 18 19 17 17 19 15 13 9 6 7 10 12 13 15 16 15 14 15 15 12 11 10 10
23 21 21 22 25 26 20 21 19 18 18 18 17 20 21 17 15 11 8 8 10 11 11 14 15 17 19 18 16 14 12 12 11
24 22 22 22 23 27 26 25 24 18 17 17 20 21 21 19 17 16 13 12 11 12 9 11 14 17 18 19 19 18 14 14 13
27 25 21 24 23 24 24 20 18 18 18 15 16 20 20 19 19 17 18 18 16 15 11 9 14 18 20 21 21 21 18 17 17
26 28 26 24 25 24 27 22 16 14 15 13 8 13 13 17 20 22 20 21 21 19 20 15 15 17 20 24 22 21 21 20 19
22 27 25 23 23 22 21 22 13 12 21 12 10 6 10 15 20 23 27 27 26 24 25 25 18 17 20 21 24 23 23 22 21
12 14 19 28 27 23 24 21 17 14 19 19 7 3 7 14 18 22 22 23 23 24 25 29 26 23 18 22 22 25 24 26 24
20 17 15 15 18 18 10 12 12 11 12 20 19 9 2 5 6 14 23 22 22 21 22 23 24 21 20 21 21 24 26 26 27
27 25 23 20 18 16 12 8 6 10 9 13 9 16 8 4 3 2 9 19 21 21 20 20 21 22 24 25 27 26 27 29 31
Wind_Direction
194 186 173 166 153 151 151 149 148 144 138 134 136 142 139 123 131 128 124 120 119 120 119 117 118 117 118 117 114 114 104 100 100
194 192 185 175 169 167 167 163 158 157 152 144 145 145 138 140 136 135 132 130 132 126 126 122 121 120 112 116 107 107 101 101 102
207 198 190 183 178 182 165 162 162 166 166 165 162 159 150 149 155 155 152 147 140 139 131 129 133 135 120 117 109 103 106 105 113
212 205 195 191 187 182 175 170 169 167 174 174 177 175 167 169 167 160 152 146 144 142 142 141 125 120 120 122 124 118 121 119 119
197 193 189 190 180 180 184 180 171 167 172 163 168 174 168 168 167 159 155 148 148 151 148 135 136 130 130 130 133 140 121 128 102
178 178 178 187 182 181 186 183 175 173 173 167 166 160 172 173 169 169 165 155 148 151 152 154 141 139 136 137 142 120 114 113 111
180 176 171 184 178 188 181 186 181 169 172 176 173 177 183 182 165 170 175 169 163 161 163 164 146 141 136 160 135 123 123 130 130
185 183 183 187 180 185 179 188 175 181 182 174 175 176 167 153 147 155 190 180 169 162 161 161 146 147 145 136 129 142 178 156 144
184 187 187 182 182 180 184 188 188 189 186 181 177 172 175 168 153 148 136 201 184 170 171 159 155 151 157 171 148 162 165 168 155
194 188 189 185 183 187 189 194 191 187 187 187 189 187 194 179 173 179 167 234 209 184 180 171 165 167 205 175 188 196 178 187 171
201 196 194 190 191 182 193 197 195 190 191 195 191 192 184 187 182 187 199 217 221 208 196 190 172 172 176 178 198 191 200 198 186
207 207 201 197 195 188 190 196 192 194 200 207 191 180 183 187 182 179 195 237 224 220 217 206 186 183 184 186 187 194 215 201 198
210 208 205 193 195 191 188 193 192 198 204 202 199 189 188 192 191 188 201 227 222 221 219 220 214 201 194 194 192 193 221 211 207
215 213 211 200 196 195 196 200 200 196 202 204 199 196 195 202 207 198 209 210 232 223 223 225 228 221 215 206 203 198 216 212 214
225 213 211 204 199 194 194 195 197 202 200 197 194 205 207 211 207 207 210 212 220 233 240 245 237 234 232 225 216 206 205 213 211
220 221 214 208 206 197 198 198 192 195 191 179 186 212 215 215 217 217 216 218 220 225 234 240 245 244 237 229 225 222 211 211 208
229 222 213 207 199 198 197 200 190 202 204 201 188 207 219 226 223 218 216 217 218 223 230 232 236 241 239 235 234 234 225 216 216
210 195 194 200 197 202 206 199 192 194 207 202 201 207 226 209 219 223 222 221 219 221 223 225 226 237 236 240 240 236 240 229 224
91 112 114 135 169 169 157 180 197 199 201 202 220 223 275 211 202 218 224 224 222 222 221 223 224 224 234 240 239 240 242 241 238
75 78 83 82 75 98 113 126 170 188 191 203 190 217 224 261 312 179 208 221 225 225 224 225 228 231 229 240 251 248 245 247 245